• MPC Preparation (Info)

  • MPEC 2003-F32 : 2003 FH1

    The following Minor Planet Electronic Circular may be linked-to from your own Web pages, but must not otherwise be redistributed electronically.

    A form allowing access to any MPEC is at the bottom of this page.


    Read MPEC 2003-F31 Read MPEC 2003-F33


    M.P.E.C. 2003-F32                                Issued 2003 Mar. 25, 12:28 UT
    
         The Minor Planet Electronic Circulars contain information on unusual
             minor planets and routine data on comets.  They are published
       on behalf of Commission 20 of the International Astronomical Union by the
              Minor Planet Center, Smithsonian Astrophysical Observatory,
                              Cambridge, MA 02138, U.S.A.
    
                 Prepared using the Tamkin Foundation Computer Network
    
                                  MPC@CFA.HARVARD.EDU
              URL http://cfa-www.harvard.edu/iau/mpc.html  ISSN 1523-6714
    
                                       2003 FH1
    
    Observations:
         K03F01H* C2003 03 24.30613 14 15 53.95 +38 16 32.8          17.0        704
         K03F01H  C2003 03 24.31824 14 15 47.98 +38 16 02.0          16.9        704
         K03F01H  C2003 03 24.33026 14 15 42.07 +38 15 30.6          16.9        704
         K03F01H  C2003 03 24.34228 14 15 36.16 +38 14 59.2          16.9        704
         K03F01H  C2003 03 24.35428 14 15 30.23 +38 14 28.0          16.9        704
         K03F01H  C2003 03 24.35505 14 15 29.84 +38 14 26.0          17.2        704
         K03F01H  C2003 03 24.36717 14 15 23.87 +38 13 54.5          17.3        704
         K03F01H  C2003 03 24.37918 14 15 17.93 +38 13 23.8          17.1        704
         K03F01H  C2003 03 24.40336 14 15 06.00 +38 12 20.3          17.1        704
         K03F01H  C2003 03 25.05290 14 10 00.69 +37 43 12.2          17.3        026
         K03F01H  C2003 03 25.05564 14 09 59.44 +37 43 04.5          17.1 V      198
         K03F01H  C2003 03 25.05613 14 09 59.14 +37 43 03.6          17.4        026
         K03F01H  C2003 03 25.05919 14 09 57.52 +37 42 53.9          16.4 R      113
         K03F01H  C2003 03 25.06030 14 09 57.00 +37 42 51.0          16.6 R      113
         K03F01H  C2003 03 25.06105 14 09 56.52 +37 42 49.3                      557
         K03F01H  C2003 03 25.06139 14 09 56.45 +37 42 47.8          16.4 R      113
         K03F01H  C2003 03 25.06267 14 09 55.81 +37 42 45.7                      246
         K03F01H  C2003 03 25.06269 14 09 55.74 +37 42 44.9                      557
         K03F01H  C2003 03 25.06304 14 09 55.63 +37 42 44.9                      246
         K03F01H  C2003 03 25.06351 14 09 55.35 +37 42 42.6                      557
         K03F01H  C2003 03 25.06353 14 09 55.42 +37 42 43.6                      246
         K03F01H  C2003 03 25.06431 14 09 55.06 +37 42 41.6                      246
         K03F01H  C2003 03 25.06466 14 09 54.88 +37 42 40.6                      246
         K03F01H  C2003 03 25.06604 14 09 54.14 +37 42 35.5                      557
         K03F01H  C2003 03 25.06685 14 09 53.75 +37 42 33.5          17.1 V      557
         K03F01H  C2003 03 25.06943 14 09 52.83 +37 42 27.8          16.9 V      198
         K03F01H  C2003 03 25.07319 14 09 51.01 +37 42 17.6          17.2 V      198
         K03F01H  C2003 03 25.07612 14 09 49.61 +37 42 09.7          17.1 V      198
         K03F01H  C2003 03 25.07758 14 09 48.86 +37 42 05.7          17.0 V      198
         K03F01H  C2003 03 25.08050 14 09 47.49 +37 41 57.8          17.1 V      198
         K03F01H  C2003 03 25.08194 14 09 46.78 +37 41 53.2          17.0 V      198
         K03F01H  C2003 03 25.09071 14 09 42.58 +37 41 29.6          17.0 V      198
         K03F01H  C2003 03 25.09655 14 09 39.76 +37 41 13.6          17.0 V      198
         K03F01H  C2003 03 25.10240 14 09 36.96 +37 40 57.6          17.0 V      198
         K03F01H  C2003 03 25.10299 14 09 36.52 +37 40 54.9                      557
         K03F01H  C2003 03 25.10385 14 09 36.24 +37 40 53.5          17.0 V      198
         K03F01H  C2003 03 25.10490 14 09 35.51 +37 40 50.1          16.6 R      118
         K03F01H  C2003 03 25.10782 14 09 34.09 +37 40 42.0          16.5 R      118
         K03F01H  C2003 03 25.10953 14 09 33.39 +37 40 36.6                      557
         K03F01H  C2003 03 25.11095 14 09 32.62 +37 40 33.2          16.6 R      118
         K03F01H  C2003 03 25.11212 14 09 32.13 +37 40 30.3          16.7 R      118
         K03F01H  C2003 03 25.11326 14 09 31.63 +37 40 26.3                      557
         K03F01H  C2003 03 25.13980 14 09 19.02 +37 39 12.8                      557
         K03F01H  C2003 03 25.14448 14 09 16.84 +37 38 59.8          17.1 V      557
         K03F01H  C2003 03 25.30960 14 08 02.91 +37 31 41.3          16.6 R      854
         K03F01H  C2003 03 25.31105 14 08 02.23 +37 31 37.5          16.7 R      854
         K03F01H  C2003 03 25.31250 14 08 01.52 +37 31 33.6          16.7 R      854
    
    Observer details:
    026 Berne-Zimmerwald.  Observer M. Ploner.  0.4-m Schmidt telescope + CCD.
    113 Volkssternwarte Drebach, Schoenbrunn.  Observer A. Knofel.  0.50-m f/4.0
        reflector + CCD.
    118 Modra.  Observers S. Gajdos, A. Galad.  0.6-m f/5.5 reflector + CCD.
    198 Wildberg.  Observer R. Apitzsch.  0.235-m Schmidt-Cassegrain + CCD.
    246 Klet Observatory-KLENOT.  Observer M. Tichy.  1.06-m KLENOT Telescope
        + CCD.
    557 Ondrejov.  Observer L. Sarounova.  0.65-m f/3.6 reflector + CCD.
    704 Lincoln Laboratory ETS, New Mexico.  Observers M. Blythe, F. Shelly,
        M. Bezpalko, R. Huber, L. Manguso, S. Adams, D. Torres, T. Brothers,
        S. Partridge.  Measurers J. Stuart, R. Sayer, J. Evans, P. Hopman.  1.0-m
        f/2.15 reflector + CCD.
    854 Sabino Canyon Observatory, Tucson.  Observer J. E. McGaha.  0.30-m f/10.0
        Schmidt-Cassegrain + CCD.
    
    Orbital elements:
    2003 FH1
    Epoch 2003 Mar. 22.0 TT = JDT 2452720.5                 MPC
    M  63.63156              (2000.0)            P               Q
    n   0.78403733     Peri.   29.24181     +0.36843302     -0.91574124
    a   1.1647826      Node    39.75210     +0.79682549     +0.22228023
    e   0.4227875      Incl.   14.51154     +0.47888020     +0.33467817
    P   1.26           H   18.3           G   0.15
    From 47 observations 2003 Mar. 24-25.
    
    Ephemeris:
    2003 FH1                 a,e,i = 1.16, 0.42, 15                  q = 0.6723
    Date    TT    R. A. (2000) Decl.     Delta      r     Elong.  Phase     V
    2003 03 22    14 34.89   +39 51.9    0.226    1.146   127.0    44.0    17.1
    2003 04 01    13 22.85   +31 59.5    0.257    1.213   142.3    30.2    17.1
    2003 04 11    12 37.73   +23 31.0    0.312    1.275   147.0    25.3    17.5
    2003 04 21    12 12.95   +16 20.6    0.386    1.333   142.6    27.3    18.1
    2003 05 01    12 01.19   +10 41.4    0.476    1.386   134.9    31.0    18.7
    2003 05 11    11 57.83   +06 12.0    0.578    1.434   127.0    34.2    19.3
    2003 05 21    11 59.99   +02 30.4    0.688    1.477   119.5    36.6    19.8
    2003 05 31    12 05.91   -00 39.3    0.804    1.516   112.5    38.2    20.3
    2003 06 10    12 14.59   -03 28.1    0.924    1.550   106.0    39.0    20.6
    2003 06 20    12 25.30   -06 02.8    1.046    1.579    99.9    39.3    21.0
    2003 06 30    12 37.63   -08 27.8    1.168    1.604    94.2    39.2    21.2
    2003 07 10    12 51.30   -10 46.0    1.290    1.624    88.7    38.8    21.5
    2003 07 20    13 06.12   -12 59.0    1.408    1.639    83.4    38.0    21.6
    2003 07 30    13 21.98   -15 07.6    1.523    1.649    78.3    37.1    21.8
    2003 08 09    13 38.86   -17 12.4    1.633    1.656    73.3    35.9    21.9
    2003 08 19    13 56.72   -19 13.1    1.736    1.657    68.5    34.6    22.0
    
    Brian G. Marsden             (C) Copyright 2003 MPC           M.P.E.C. 2003-F32
    

    Read MPEC 2003-F31 Read MPEC 2003-F33


    MPEC number:

    Enter an MPEC number in one of the following forms:

    • 1997-B01 (the full form)
    • J97B01 (the packed version of the full form)
    • B01 (the abbreviated form)